Location: Gorze? G�rny
(49.8500°N, 19.5000°E)
Time: 05:11:28
(UTC+00:00)

Meteor 2-6 Rocket - Pass Details

Date: 13 May 2021
Orbit: 807 x 913 km, 81.3° (Epoch: 20 June)

Event Time Altitude Azimuth Distance (km) Brightness Sun altitude
Exits shadow 19:52:34 - 188° (S) 2,908 6.6 -12.4°
Reaches altitude 10° 19:53:52 10° 188° (S) 2,400 6.2 -12.5°
Maximum altitude 19:59:18 86° 101° (E) 836 4.1 -13.1°
Drops below altitude 10° 20:04:54 10° 13° (NNE) 2,473 7.2 -13.6°
Sets 20:07:22 0° 13° (NNE) 3,429 8.0 -13.9°
